TimeMDT,TemperatureF,Dew PointF,Humidity,Sea Level PressureIn,VisibilityMPH,Wind Direction,Wind SpeedMPH,Gust SpeedMPH,PrecipitationIn,Events,Conditions,WindDirDegrees,DateUTC
12:55 AM,24.1,19.9,84,30.43,10.0,Calm,Calm,-,N/A,,Clear,0,2012-10-06 06:55:00
1:55 AM,24.1,19.9,84,30.44,10.0,NW,4.6,-,N/A,,Clear,310,2012-10-06 07:55:00
2:55 AM,23.0,19.0,85,30.45,10.0,Calm,Calm,-,N/A,,Clear,0,2012-10-06 08:55:00
3:55 AM,21.9,19.0,89,30.44,10.0,WNW,4.6,-,N/A,,Clear,300,2012-10-06 09:55:00
4:55 AM,21.9,19.9,92,30.44,10.0,Calm,Calm,-,N/A,,Clear,0,2012-10-06 10:55:00
5:55 AM,24.1,21.0,88,30.43,10.0,Calm,Calm,-,N/A,,Clear,0,2012-10-06 11:55:00
6:55 AM,23.0,21.0,92,30.45,10.0,Calm,Calm,-,N/A,,Mostly Cloudy,0,2012-10-06 12:55:00
7:55 AM,27.0,24.1,89,30.46,10.0,Calm,Calm,-,N/A,,Overcast,0,2012-10-06 13:55:00
8:55 AM,28.0,26.1,92,30.47,10.0,Calm,Calm,-,N/A,,Overcast,0,2012-10-06 14:55:00
9:55 AM,34.0,28.9,82,30.47,10.0,West,3.5,-,N/A,,Scattered Clouds,280,2012-10-06 15:55:00
10:55 AM,39.0,27.0,62,30.46,10.0,Calm,Calm,-,N/A,,Overcast,0,2012-10-06 16:55:00
11:55 AM,41.0,27.0,57,30.45,10.0,ENE,9.2,-,N/A,,Mostly Cloudy,60,2012-10-06 17:55:00
12:55 PM,43.0,24.1,47,30.45,10.0,NE,3.5,-,N/A,,Overcast,40,2012-10-06 18:55:00
1:55 PM,46.0,25.0,44,30.43,10.0,North,4.6,-,0.00,,Clear,350,2012-10-06 19:55:00
2:55 PM,48.9,21.9,35,30.39,10.0,Calm,Calm,-,N/A,,Partly Cloudy,0,2012-10-06 20:55:00
3:55 PM,51.8,21.2,30,30.31,10.0,Calm,Calm,-,N/A,,Partly Cloudy,0,2012-10-06 21:55:00
5:55 PM,53.1,23.0,31,30.33,10.0,West,3.5,-,N/A,,Mostly Cloudy,270,2012-10-06 23:55:00
6:55 PM,46.0,26.1,46,30.33,10.0,NE,4.6,-,N/A,,Clear,40,2012-10-07 00:55:00
7:55 PM,39.9,28.9,65,30.33,10.0,Calm,Calm,-,N/A,,Clear,0,2012-10-07 01:55:00
8:55 PM,35.1,28.9,78,30.33,10.0,Calm,Calm,-,N/A,,Clear,0,2012-10-07 02:55:00
9:55 PM,30.0,26.1,85,30.33,10.0,Calm,Calm,-,N/A,,Clear,0,2012-10-07 03:55:00
10:55 PM,30.0,27.0,88,30.32,10.0,Calm,Calm,-,N/A,,Clear,0,2012-10-07 04:55:00
11:55 PM,28.0,25.0,88,30.31,10.0,NW,3.5,-,N/A,,Clear,310,2012-10-07 05:55:00